Volver al catálogo

METEOR 2-5 DEB

ActivoPO
NORAD 38274·DEBRIS·🇷🇺 Russia

Lanzado Oct 31, 1979 desde Plesetsk Cosmodrome

Loading…

Próximos Pases (próximas 24 horas)

TLE

EnvejeciendoSource: Space-Track

Época: Sep 7, 2026, 16:09 UTC

1 38274U 79095BU  26250.67340291  .00005329  00000-0  13898-2 0  9991
2 38274  81.1881  20.8531 0015564  82.5767 277.7193 14.49342643624444

Sigue METEOR 2-5 DEB en tiempo real con AllMySat

Download on the App Store